• In Portugal
  • List of Countries
  • For 7 days
  • Water Temperature
  • Satellite Maps
  • Weather Map
  • Weather Widgets
  • user-avatar
    Login

    Hourly Weather Goiania

    Today, 17 October, Tuesday

    Time Temperature Precipitation Wind Pressure Humidity
    00:00 +30°C° 0 mm 3 mps 699 mmHg 33%
    01:00 +30°C° 0 mm 3 mps 699 mmHg 35%
    02:00 +29°C° 0 mm 3 mps 699 mmHg 36%
    03:00 +28°C° 0 mm 4 mps 699 mmHg 38%
    04:00 +28°C° 0 mm 4 mps 699 mmHg 42%
    05:00 +28°C° 0 mm 5 mps 700 mmHg 46%
    06:00 +27°C° 0 mm 5 mps 700 mmHg 49%
    07:00 +29°C° 0 mm 5 mps 701 mmHg 46%
    08:00 +30°C° 0 mm 6 mps 701 mmHg 42%
    09:00 +33°C° 0 mm 6 mps 702 mmHg 37%
    10:00 +34°C° 0 mm 5 mps 702 mmHg 34%
    11:00 +36°C° 0 mm 4 mps 702 mmHg 30%
    12:00 +37°C° 0 mm 4 mps 702 mmHg 26%
    13:00 +37°C° 0 mm 3 mps 701 mmHg 26%
    14:00 +37°C° 0 mm 2 mps 700 mmHg 26%
    15:00 +36°C° 0 mm 2 mps 700 mmHg 26%
    16:00 +35°C° 0 mm 2 mps 700 mmHg 27%
    17:00 +34°C° 0 mm 2 mps 699 mmHg 29%
    18:00 +32°C° 0 mm 1 mps 699 mmHg 31%
    19:00 +32°C° 0 mm 2 mps 699 mmHg 31%
    20:00 +31°C° 0 mm 2 mps 700 mmHg 32%
    21:00 +31°C° 0 mm 2 mps 700 mmHg 33%
    22:00 +30°C° 0 mm 3 mps 700 mmHg 34%
    23:00 +30°C° 0 mm 3 mps 700 mmHg 35%

    Tomorrow, 18 October, Wednesday

    Time Temperature Precipitation Wind Pressure Humidity
    00:00 +29°C° 0 mm 4 mps 700 mmHg 36%
    01:00 +29°C° 0 mm 4 mps 700 mmHg 37%
    02:00 +28°C° 0 mm 4 mps 699 mmHg 39%
    03:00 +27°C° 0 mm 4 mps 699 mmHg 41%
    04:00 +27°C° 0 mm 5 mps 699 mmHg 41%
    05:00 +27°C° 0 mm 5 mps 700 mmHg 41%
    06:00 +27°C° 0 mm 5 mps 700 mmHg 42%
    07:00 +28°C° 0 mm 5 mps 700 mmHg 39%
    08:00 +29°C° 0 mm 6 mps 701 mmHg 37%
    09:00 +32°C° 0 mm 6 mps 702 mmHg 35%
    10:00 +34°C° 0 mm 5 mps 702 mmHg 31%
    11:00 +36°C° 0 mm 4 mps 702 mmHg 27%
    12:00 +37°C° 0 mm 4 mps 702 mmHg 23%
    13:00 +37°C° 0 mm 4 mps 701 mmHg 23%
    14:00 +37°C° 0 mm 3 mps 700 mmHg 24%
    15:00 +36°C° 0 mm 3 mps 699 mmHg 24%
    16:00 +35°C° 0 mm 2 mps 699 mmHg 26%
    17:00 +34°C° 0 mm 2 mps 698 mmHg 27%
    18:00 +32°C° 0 mm 1 mps 698 mmHg 28%
    19:00 +31°C° 0 mm 2 mps 699 mmHg 30%
    20:00 +30°C° 0 mm 2 mps 699 mmHg 32%
    21:00 +29°C° 0 mm 2 mps 699 mmHg 33%
    22:00 +29°C° 0 mm 3 mps 699 mmHg 33%
    23:00 +28°C° 0 mm 3 mps 699 mmHg 34%

    Day after tomorrow, 19 October, Thursday

    Time Temperature Precipitation Wind Pressure Humidity
    00:00 +27°C° 0 mm 3 mps 699 mmHg 34%
    01:00 +27°C° 0 mm 3 mps 699 mmHg 32%
    02:00 +26°C° 0 mm 3 mps 698 mmHg 30%
    03:00 +26°C° 0 mm 3 mps 698 mmHg 29%
    04:00 +26°C° 0 mm 3 mps 698 mmHg 29%
    05:00 +25°C° 0 mm 3 mps 698 mmHg 30%
    06:00 +25°C° 0 mm 4 mps 698 mmHg 30%
    07:00 +27°C° 0 mm 4 mps 699 mmHg 29%
    08:00 +29°C° 0 mm 5 mps 700 mmHg 28%
    09:00 +30°C° 0 mm 5 mps 700 mmHg 27%
    10:00 +34°C° 0 mm 4 mps 700 mmHg 24%
    11:00 +36°C° 0 mm 3 mps 700 mmHg 22%
    12:00 +38°C° 0 mm 2 mps 701 mmHg 19%
    13:00 +38°C° 0 mm 2 mps 700 mmHg 18%
    14:00 +37°C° 0 mm 1 mps 699 mmHg 18%
    15:00 +37°C° 0 mm 1 mps 698 mmHg 17%
    16:00 +36°C° 0 mm 1 mps 698 mmHg 19%
    17:00 +34°C° 0 mm 1 mps 698 mmHg 22%
    18:00 +32°C° 0 mm 2 mps 698 mmHg 24%
    19:00 +31°C° 0 mm 2 mps 698 mmHg 26%
    20:00 +30°C° 0 mm 2 mps 698 mmHg 28%
    21:00 +29°C° 0 mm 2 mps 698 mmHg 30%
    22:00 +29°C° 0 mm 2 mps 698 mmHg 31%
    23:00 +29°C° 0 mm 2 mps 698 mmHg 31%

    20 October, Friday

    Time Temperature Precipitation Wind Pressure Humidity
    00:00 +29°C° 0 mm 1 mps 698 mmHg 32%
    01:00 +28°C° 0 mm 2 mps 698 mmHg 32%
    02:00 +28°C° 0 mm 2 mps 698 mmHg 32%
    03:00 +28°C° 0 mm 2 mps 697 mmHg 33%
    04:00 +27°C° 0 mm 2 mps 697 mmHg 34%
    05:00 +27°C° 0 mm 2 mps 698 mmHg 35%
    06:00 +26°C° 0 mm 2 mps 698 mmHg 36%
    07:00 +29°C° 0 mm 3 mps 699 mmHg 33%
    08:00 +31°C° 0 mm 3 mps 699 mmHg 29%
    09:00 +35°C° 0 mm 4 mps 700 mmHg 25%
    10:00 +36°C° 0 mm 3 mps 700 mmHg 24%
    11:00 +36°C° 0 mm 3 mps 699 mmHg 23%
    12:00 +36°C° 0 mm 3 mps 699 mmHg 22%
    13:00 +37°C° 0 mm 2 mps 699 mmHg 22%
    14:00 +37°C° 0 mm 2 mps 698 mmHg 21%
    15:00 +37°C° 0 mm 2 mps 697 mmHg 21%
    16:00 +36°C° 0 mm 2 mps 697 mmHg 23%
    17:00 +34°C° 0 mm 1 mps 697 mmHg 25%
    18:00 +32°C° 0 mm 1 mps 697 mmHg 27%
    19:00 +31°C° 0 mm 1 mps 697 mmHg 28%
    20:00 +31°C° 0 mm 1 mps 698 mmHg 29%
    21:00 +30°C° 0 mm 1 mps 698 mmHg 30%
    22:00 +29°C° 0 mm 1 mps 698 mmHg 32%
    23:00 +29°C° 0 mm 1 mps 698 mmHg 33%

    21 October, Saturday

    Time Temperature Precipitation Wind Pressure Humidity
    00:00 +28°C° 0 mm 1 mps 698 mmHg 35%
    01:00 +27°C° 0 mm 2 mps 697 mmHg 37%
    02:00 +27°C° 0 mm 2 mps 697 mmHg 39%
    03:00 +26°C° 0 mm 2 mps 696 mmHg 41%
    04:00 +26°C° 0 mm 2 mps 697 mmHg 41%
    05:00 +26°C° 0 mm 2 mps 697 mmHg 42%
    06:00 +26°C° 0 mm 2 mps 697 mmHg 42%
    07:00 +28°C° 0 mm 3 mps 698 mmHg 37%
    08:00 +32°C° 0 mm 4 mps 699 mmHg 31%
    09:00 +35°C° 0 mm 5 mps 700 mmHg 25%
    10:00 +36°C° 0 mm 5 mps 700 mmHg 23%
    11:00 +38°C° 0 mm 4 mps 700 mmHg 22%
    12:00 +40°C° 0 mm 4 mps 700 mmHg 20%
    13:00 +38°C° 0 mm 4 mps 699 mmHg 20%
    14:00 +38°C° 0 mm 3 mps 698 mmHg 20%
    15:00 +38°C° 0 mm 3 mps 698 mmHg 21%
    16:00 +36°C° 0 mm 2 mps 698 mmHg 23%
    17:00 +34°C° 0 mm 1 mps 698 mmHg 25%
    18:00 +33°C° 0 mm 1 mps 698 mmHg 28%
    19:00 +32°C° 0 mm 1 mps 698 mmHg 28%
    20:00 +32°C° 0 mm 2 mps 698 mmHg 29%
    21:00 +31°C° 0 mm 2 mps 699 mmHg 29%
    22:00 +31°C° 0 mm 2 mps 699 mmHg 30%
    23:00 +30°C° 0 mm 2 mps 698 mmHg 31%

    22 October, Sunday

    Time Temperature Precipitation Wind Pressure Humidity
    00:00 +30°C° 0 mm 2 mps 698 mmHg 32%
    01:00 +30°C° 0 mm 2 mps 698 mmHg 33%
    02:00 +29°C° 0 mm 2 mps 697 mmHg 34%
    03:00 +29°C° 0 mm 2 mps 697 mmHg 35%
    04:00 +28°C° 0 mm 2 mps 697 mmHg 37%
    05:00 +27°C° 0 mm 2 mps 697 mmHg 39%
    06:00 +26°C° 0 mm 2 mps 698 mmHg 40%
    07:00 +29°C° 0 mm 3 mps 698 mmHg 36%
    08:00 +33°C° 0 mm 3 mps 699 mmHg 31%
    09:00 +35°C° 0 mm 4 mps 700 mmHg 26%
    10:00 +36°C° 0 mm 4 mps 700 mmHg 25%
    11:00 +37°C° 0 mm 5 mps 700 mmHg 24%
    12:00 +39°C° 0 mm 5 mps 699 mmHg 23%
    13:00 +37°C° 0 mm 5 mps 699 mmHg 24%
    14:00 +36°C° 0 mm 5 mps 698 mmHg 25%
    15:00 +36°C° 0 mm 4 mps 698 mmHg 26%
    16:00 +34°C° 0 mm 3 mps 698 mmHg 29%
    17:00 +32°C° 0 mm 2 mps 698 mmHg 33%
    18:00 +31°C° 0 mm 1 mps 698 mmHg 36%
    19:00 +30°C° 0 mm 1 mps 698 mmHg 39%
    20:00 +29°C° 0 mm 1 mps 698 mmHg 43%
    21:00 +28°C° 0 mm 2 mps 698 mmHg 46%
    22:00 +28°C° 0 mm 2 mps 698 mmHg 48%
    23:00 +27°C° 0 mm 2 mps 698 mmHg 50%
    Show more